FW9870 Weather Reports


time (UTC)temp
F
wind
direction
speed
knots
gust
knots
rain 1hr
in
rain 24hr
in
rain mn
in
humidity
%
barometer
mb
20260509132024 52 212 3.5 8.7 0.00 0.02 0.00 80 1007.7
20260509131540 51 185 3.5 8.7 0.00 0.02 0.00 80 1007.9
20260509131023 51 196 3.5 8.7 0.00 0.02 0.00 79 1007.9
20260509130524 51 190 4.3 8.7 0.00 0.02 0.00 79 1007.7
20260509130040 51 188 6.1 8.7 0.00 0.02 0.00 79 1007.9
20260509125526 50 188 3.5 7.0 0.00 0.02 0.00 79 1007.7
20260509125023 50 214 4.3 8.7 0.00 0.02 0.00 79 1007.7
20260509124543 50 182 5.2 8.7 0.00 0.02 0.00 79 1007.7
20260509124024 50 214 4.3 10.4 0.00 0.02 0.00 79 1007.9
20260509123523 49 215 5.2 10.4 0.00 0.02 0.00 79 1007.8
20260509123048 49 234 2.6 8.7 0.00 0.02 0.00 79 1007.9
20260509122523 48 209 2.6 8.7 0.00 0.02 0.00 79 1007.8
20260509122023 48 198 1.7 6.1 0.00 0.02 0.00 80 1007.8
20260509121541 47 185 2.6 6.1 0.00 0.02 0.00 79 1007.9
20260509121023 47 180 3.5 6.1 0.00 0.02 0.00 79 1007.9
20260509120523 46 175 3.5 6.1 0.00 0.02 0.00 79 1007.8
20260509120045 46 159 2.6 7.0 0.00 0.02 0.00 79 1007.8
20260509115522 45 170 3.5 7.0 0.00 0.02 0.00 79 1007.9
20260509115024 45 197 1.7 5.2 0.00 0.02 0.00 79 1008.0
20260509114542 45 197 1.7 5.2 0.00 0.02 0.00 79 1008.0
20260509114025 45 190 2.6 5.2 0.00 0.02 0.00 79 1007.9
20260509113525 44 200 1.7 5.2 0.00 0.02 0.00 80 1007.8
20260509113041 44 198 0.9 5.2 0.00 0.02 0.00 80 1007.9
20260509112523 44 195 1.7 5.2 0.00 0.02 0.00 79 1008.0
20260509112023 44 202 2.6 5.2 0.00 0.02 0.00 79 1008.0
20260509111540 44 198 2.6 5.2 0.00 0.02 0.00 79 1007.9
20260509111023 44 194 2.6 6.1 0.00 0.02 0.00 79 1007.8
20260509110524 43 208 2.6 6.1 0.00 0.02 0.00 79 1007.8
20260509110041 43 194 1.7 4.3 0.00 0.02 0.00 80 1007.8
20260509105523 43 217 1.7 4.3 0.00 0.02 0.00 80 1007.9
20260509105023 43 191 2.6 4.3 0.00 0.02 0.00 80 1008.0
20260509104539 43 200 1.7 6.1 0.00 0.02 0.00 80 1007.9
20260509104024 43 199 1.7 6.1 0.00 0.02 0.00 80 1008.0
20260509103524 43 192 2.6 6.1 0.00 0.02 0.00 80 1007.9
20260509103048 42 189 2.6 7.0 0.00 0.02 0.00 80 1007.8
20260509102524 42 198 2.6 7.0 0.00 0.02 0.00 80 1007.8
20260509102024 42 180 3.5 6.1 0.00 0.02 0.00 80 1007.8
20260509101542 42 198 2.6 6.1 0.00 0.02 0.00 81 1007.9
20260509101023 42 194 3.5 6.1 0.00 0.02 0.00 81 1007.9
20260509100522 41 207 2.6 7.0 0.00 0.02 0.00 80 1007.9
20260509100049 41 197 2.6 7.0 0.00 0.02 0.00 80 1007.9
20260509095526 41 216 1.7 3.5 0.00 0.02 0.00 80 1007.8
20260509095022 41 196 1.7 6.1 0.00 0.02 0.00 79 1007.8
20260509094542 41 199 2.6 6.1 0.00 0.02 0.00 79 1007.8
20260509094024 41 202 1.7 6.1 0.00 0.02 0.00 79 1007.8
20260509093523 42 192 1.7 3.5 0.00 0.02 0.00 78 1007.8
20260509093044 42 217 1.7 5.2 0.00 0.02 0.00 78 1007.8
20260509092524 42 208 1.7 5.2 0.00 0.02 0.00 77 1007.8
20260509092026 42 209 1.7 5.2 0.00 0.02 0.00 77 1007.7
20260509091540 42 188 2.6 5.2 0.00 0.02 0.00 77 1007.8
20260509091023 42 186 0.9 4.3 0.00 0.02 0.00 77 1007.8
20260509090523 42 198 1.7 4.3 0.00 0.02 0.00 76 1007.8
20260509090052 42 202 1.7 4.3 0.00 0.02 0.00 76 1008.0
20260509085522 42 210 1.7 6.1 0.00 0.02 0.00 76 1008.0
20260509085023 42 203 2.6 6.1 0.00 0.02 0.00 76 1008.0
20260509084541 42 167 3.5 6.1 0.00 0.02 0.00 77 1008.1
20260509084028 41 221 1.7 4.3 0.00 0.02 0.00 78 1008.1
20260509083523 41 198 1.7 4.3 0.00 0.02 0.00 79 1008.2
20260509083043 40 202 1.7 3.5 0.00 0.02 0.00 80 1008.3
20260509082522 40 206 0.9 4.3 0.00 0.02 0.00 81 1008.4
20260509082023 40 207 1.7 4.3 0.00 0.02 0.00 81 1008.4
20260509081542 40 207 1.7 4.3 0.00 0.02 0.00 81 1008.5
20260509081023 40 197 1.7 4.3 0.00 0.02 0.00 81 1008.5
20260509080523 40 197 1.7 4.3 0.00 0.02 0.00 82 1008.5
20260509080042 40 208 1.7 4.3 0.00 0.02 0.00 83 1008.5
20260509075523 39 205 1.7 4.3 0.00 0.02 0.00 85 1008.4
20260509075023 38 200 1.7 4.3 0.00 0.02 0.00 86 1008.6
20260509074547 38 202 1.7 3.5 0.00 0.02 0.00 89 1008.6
20260509074027 37 0 0.0 0.0 0.00 0.02 0.00 90 1008.7
20260509073526 36 0 0.0 0.0 0.00 0.02 0.00 90 1008.7
20260509073043 36 0 0.0 0.0 0.00 0.02 0.00 90 1008.7
20260509072523 36 0 0.0 0.0 0.00 0.02 0.00 90 1008.8
20260509072024 35 0 0.0 0.0 0.00 0.02 0.00 89 1008.7
20260509071546 36 0 0.0 0.0 0.00 0.02 0.00 90 1008.8
20260509071023 35 0 0.0 0.0 0.00 0.02 0.00 89 1008.8
20260509070523 36 0 0.0 0.0 0.00 0.02 0.00 89 1008.9
20260509070044 36 0 0.0 0.0 0.00 0.02 0.00 89 1008.8
20260509065537 36 0 0.0 0.0 0.00 0.02 0.00 90 1008.9
20260509065023 36 0 0.0 0.0 0.00 0.02 0.00 90 1009.0
20260509064541 36 0 0.0 0.0 0.00 0.02 0.00 90 1009.0
20260509064023 36 0 0.0 0.0 0.00 0.02 0.00 90 1009.0
20260509063527 36 0 0.0 0.0 0.00 0.02 0.00 90 1009.1
20260509063041 36 0 0.0 0.0 0.00 0.02 0.00 90 1009.2
20260509062524 36 0 0.0 0.0 0.00 0.02 0.00 90 1009.1
20260509062024 36 0 0.0 0.0 0.00 0.02 0.00 90 1009.2
20260509061543 36 0 0.0 0.0 0.00 0.02 0.00 90 1009.3
20260509061027 36 0 0.0 0.0 0.00 0.02 0.00 90 1009.3
20260509060523 36 0 0.0 0.0 0.00 0.02 0.00 90 1009.4
20260509060048 36 0 0.0 0.0 0.00 0.02 0.00 90 1009.5
20260509055527 36 0 0.0 0.0 0.00 0.04 0.00 90 1009.5
20260509055027 36 0 0.0 0.0 0.00 0.04 0.00 90 1009.5
20260509054558 36 0 0.0 0.0 0.00 0.04 0.00 90 1009.7
20260509054023 36 0 0.0 0.0 0.00 0.04 0.00 90 1009.7
20260509053523 36 0 0.0 0.0 0.00 0.04 0.00 90 1009.7
20260509053042 36 0 0.0 0.0 0.00 0.04 0.00 90 1009.8
20260509052524 36 0 0.0 0.0 0.00 0.04 0.00 90 1009.8
20260509052023 36 0 0.0 0.0 0.00 0.04 0.00 90 1009.8
20260509051542 35 0 0.0 0.0 0.00 0.04 0.00 90 1009.9
20260509051023 35 0 0.0 0.0 0.00 0.04 0.00 90 1009.9
20260509050523 35 0 0.0 0.0 0.00 0.04 0.00 90 1009.9
20260509050051 35 0 0.0 0.0 0.00 0.04 0.00 90 1009.9
20260509045523 36 0 0.0 0.0 0.00 0.07 0.00 90 1009.8
20260509045023 36 0 0.0 0.0 0.00 0.07 0.00 90 1009.9
20260509044537 36 0 0.0 0.0 0.00 0.07 0.00 89 1010.0
20260509044026 36 0 0.0 0.0 0.00 0.07 0.00 89 1010.1
20260509043527 36 0 0.0 0.0 0.00 0.07 0.00 89 1010.1
20260509043053 36 0 0.0 0.0 0.00 0.07 0.00 89 1010.1
20260509042523 36 0 0.0 0.0 0.00 0.07 0.00 89 1010.3
20260509042027 36 0 0.0 0.0 0.00 0.07 0.00 89 1010.3
20260509041542 36 0 0.0 0.0 0.00 0.07 0.00 89 1010.4
20260509041023 36 0 0.0 0.0 0.00 0.07 0.00 89 1010.3
20260509040523 36 0 0.0 0.0 0.00 0.07 0.00 89 1010.3
20260509040048 36 0 0.0 0.0 0.00 0.07 0.00 89 1010.2
20260509035527 36 0 0.0 0.0 0.00 0.07 0.07 89 1010.2
20260509035024 36 0 0.0 0.0 0.00 0.07 0.07 89 1010.3
20260509034541 37 0 0.0 0.0 0.00 0.07 0.07 88 1010.3
20260509034026 37 0 0.0 0.0 0.00 0.07 0.07 88 1010.3
20260509033523 37 0 0.0 0.0 0.00 0.07 0.07 88 1010.3
20260509033040 37 0 0.0 0.0 0.00 0.07 0.07 88 1010.3
20260509032523 37 0 0.0 0.0 0.00 0.07 0.07 88 1010.4
20260509032023 37 0 0.0 0.0 0.00 0.07 0.07 88 1010.4
20260509031549 37 0 0.0 0.0 0.00 0.07 0.07 88 1010.4
20260509031023 37 0 0.0 0.0 0.00 0.07 0.07 87 1010.5
20260509030523 37 0 0.0 0.0 0.00 0.07 0.07 87 1010.4
20260509030045 38 0 0.0 0.0 0.00 0.07 0.07 87 1010.6
20260509025522 38 0 0.0 0.0 0.00 0.07 0.07 87 1010.6
20260509025022 38 0 0.0 0.0 0.00 0.07 0.07 87 1010.5
20260509024542 38 0 0.0 0.0 0.00 0.07 0.07 86 1010.4
20260509024023 38 0 0.0 0.0 0.00 0.07 0.07 86 1010.4
20260509023522 38 0 0.0 0.0 0.00 0.07 0.07 86 1010.4
20260509023041 39 0 0.0 0.0 0.00 0.07 0.07 86 1010.5
20260509022523 39 0 0.0 0.0 0.00 0.07 0.07 86 1010.4
20260509022023 39 0 0.0 0.0 0.00 0.07 0.07 85 1010.4
20260509021540 39 0 0.0 0.0 0.00 0.07 0.07 85 1010.4
20260509021024 39 0 0.0 0.0 0.00 0.07 0.07 85 1010.5
20260509020521 40 0 0.0 0.0 0.00 0.07 0.07 84 1010.6
20260509020040 40 0 0.0 0.0 0.00 0.07 0.07 84 1010.6
20260509015523 40 0 0.0 0.0 0.00 0.07 0.07 84 1010.6
20260509015023 40 0 0.0 0.0 0.00 0.07 0.07 84 1010.6
20260509014535 41 0 0.0 0.0 0.00 0.07 0.07 83 1010.5
20260509014023 41 0 0.0 0.0 0.00 0.07 0.07 82 1010.7
20260509013523 41 0 0.0 0.0 0.00 0.07 0.07 82 1010.7
20260509013045 41 0 0.0 0.0 0.00 0.07 0.07 81 1010.6
20260509012521 42 0 0.0 0.0 0.00 0.07 0.07 81 1010.6
20260509012023 42 0 0.0 0.0 0.00 0.07 0.07 80 1010.4
20260509011547 42 0 0.0 0.0 0.00 0.07 0.07 80 1010.2
20260509011025 43 0 0.0 0.0 0.00 0.07 0.07 79 1010.1
20260509010523 43 0 0.0 0.0 0.00 0.07 0.07 78 1010.1
20260509010044 43 0 0.0 0.0 0.00 0.07 0.07 77 1010.0
20260509005523 44 0 0.0 0.0 0.00 0.07 0.07 77 1010.1
20260509005023 44 0 0.0 0.0 0.00 0.07 0.07 76 1010.0
20260509004548 45 0 0.0 0.0 0.00 0.07 0.07 76 1009.9
20260509004023 45 0 0.0 0.0 0.00 0.07 0.07 75 1009.8
20260509003523 46 0 0.0 0.0 0.00 0.07 0.07 74 1009.8
20260509003036 46 0 0.0 0.0 0.00 0.07 0.07 73 1009.8
20260509002526 47 0 0.0 0.0 0.00 0.07 0.07 73 1009.7
20260509002026 48 0 0.0 0.0 0.00 0.07 0.07 72 1009.8
20260509001541 48 0 0.0 0.0 0.00 0.07 0.07 69 1009.7
20260509001022 48 0 0.0 0.0 0.00 0.07 0.07 66 1009.7
20260509000522 49 0 0.0 0.0 0.00 0.07 0.07 65 1009.7
20260509000053 49 0 0.0 0.0 0.00 0.07 0.07 66 1009.7
20260508235523 49 0 0.0 0.0 0.00 0.07 0.07 65 1009.7
20260508235024 50 0 0.0 0.0 0.00 0.07 0.07 64 1009.8
20260508234541 50 0 0.0 0.0 0.00 0.07 0.07 63 1009.8
20260508234023 50 0 0.0 0.0 0.00 0.07 0.07 60 1009.7
20260508233523 50 0 0.0 2.6 0.00 0.07 0.07 60 1009.6
20260508233040 50 0 0.0 2.6 0.00 0.07 0.07 59 1009.6
20260508232523 51 63 0.9 2.6 0.00 0.07 0.07 62 1009.6
20260508232020 51 62 0.9 2.6 0.00 0.07 0.07 63 1009.6
20260508231548 51 62 0.9 3.5 0.00 0.07 0.07 62 1009.6
20260508231024 51 57 0.9 3.5 0.00 0.07 0.07 63 1009.8
20260508230526 51 57 1.7 3.5 0.00 0.07 0.07 60 1009.8
20260508230041 51 77 1.7 4.3 0.00 0.07 0.07 61 1009.7
20260508225520 51 79 1.7 4.3 0.00 0.07 0.07 61 1009.7
20260508225026 51 57 1.7 2.6 0.00 0.07 0.07 61 1009.8
20260508224541 51 57 1.7 3.5 0.00 0.07 0.07 61 1009.7
20260508224022 52 57 1.7 4.3 0.00 0.07 0.07 62 1009.7
20260508223523 52 54 1.7 4.3 0.00 0.07 0.07 62 1009.7
20260508223041 52 61 2.6 3.5 0.00 0.07 0.07 62 1009.8
20260508222523 52 49 1.7 3.5 0.00 0.07 0.07 61 1009.8
20260508222023 52 61 1.7 3.5 0.00 0.07 0.07 62 1009.9
20260508221540 52 59 1.7 2.6 0.00 0.07 0.07 60 1009.8
20260508221023 51 67 0.9 2.6 0.00 0.07 0.07 62 1009.9
20260508220522 51 68 0.9 4.3 0.00 0.07 0.07 64 1009.9
20260508220045 51 68 1.7 4.3 0.00 0.07 0.07 64 1009.9
20260508215523 51 81 2.6 6.1 0.00 0.07 0.07 63 1010.1
20260508215023 51 86 3.5 6.1 0.00 0.07 0.07 64 1010.0
20260508214542 51 61 1.7 3.5 0.00 0.07 0.07 65 1010.0
20260508214022 51 51 1.7 3.5 0.00 0.07 0.07 68 1010.0
20260508213522 51 60 0.9 4.3 0.00 0.07 0.07 68 1009.9
20260508213047 50 53 1.7 5.2 0.00 0.07 0.07 68 1010.0
20260508212523 50 81 2.6 6.1 0.00 0.07 0.07 69 1010.0
20260508212026 49 90 3.5 6.1 0.00 0.07 0.07 68 1010.1
20260508211543 49 91 2.6 5.2 0.00 0.07 0.07 68 1010.1
20260508211024 49 63 1.7 4.3 0.00 0.07 0.07 70 1010.1
20260508210520 49 67 2.6 5.2 0.00 0.07 0.07 69 1010.2
20260508210048 49 43 2.6 5.2 0.00 0.07 0.07 69 1010.2
20260508205519 48 55 2.6 5.2 0.00 0.07 0.07 70 1010.2
20260508205023 49 51 2.6 6.1 0.00 0.07 0.07 70 1010.4
20260508204542 49 51 3.5 6.1 0.00 0.07 0.07 70 1010.3
20260508204022 49 36 3.5 6.1 0.00 0.07 0.07 72 1010.5
20260508203522 49 43 3.5 7.0 0.00 0.07 0.07 71 1010.6
20260508203049 49 88 2.6 7.0 0.00 0.07 0.07 71 1010.6
20260508202526 48 67 3.5 5.2 0.00 0.07 0.07 70 1010.7
20260508202023 49 37 3.5 5.2 0.00 0.07 0.07 69 1010.7
20260508201541 49 44 2.6 5.2 0.00 0.07 0.07 70 1010.7
20260508201023 49 42 2.6 5.2 0.00 0.07 0.07 68 1010.7
20260508200523 48 73 2.6 7.8 0.00 0.07 0.07 70 1010.7
20260508200052 48 57 2.6 7.8 0.00 0.07 0.07 71 1010.8
20260508195522 48 69 3.5 7.8 0.00 0.07 0.07 70 1010.8
20260508195023 48 55 2.6 6.1 0.00 0.07 0.07 69 1010.9
20260508194540 48 48 2.6 6.1 0.00 0.07 0.07 69 1011.0
20260508194023 48 51 3.5 6.1 0.00 0.07 0.07 70 1011.2
20260508193519 48 360 3.5 7.8 0.00 0.07 0.07 69 1011.3
20260508193041 48 69 4.3 7.8 0.00 0.07 0.07 69 1011.2
20260508192519 48 58 3.5 7.8 0.00 0.07 0.07 68 1011.3
20260508192023 48 61 2.6 7.0 0.00 0.07 0.07 69 1011.4
20260508191541 48 31 2.6 7.0 0.00 0.07 0.07 69 1011.3
20260508191023 48 15 3.5 7.8 0.00 0.07 0.07 69 1011.4
20260508190523 48 56 3.5 7.8 0.00 0.07 0.07 67 1011.3
20260508190051 48 82 3.5 7.8 0.00 0.07 0.07 69 1011.3
20260508185523 48 61 3.5 7.0 0.00 0.07 0.07 69 1011.3
20260508185023 48 103 3.5 7.0 0.00 0.07 0.07 69 1011.2
20260508184542 48 41 2.6 7.8 0.00 0.07 0.07 70 1011.3
20260508184022 48 49 3.5 7.8 0.00 0.07 0.07 72 1011.3
20260508183526 48 18 3.5 7.8 0.00 0.07 0.07 70 1011.3
20260508183041 48 335 3.5 8.7 0.00 0.07 0.07 71 1011.4
20260508182523 47 344 4.3 8.7 0.00 0.07 0.07 74 1011.5
20260508182029 47 36 5.2 8.7 0.00 0.07 0.07 73 1011.5
20260508181605 48 66 4.3 7.8 0.00 0.07 0.07 74 1011.5
20260508181025 47 74 3.5 7.8 0.00 0.07 0.07 74 1011.4
20260508180521 47 57 2.6 8.7 0.00 0.07 0.07 74 1011.4
20260508180050 48 53 3.5 8.7 0.00 0.07 0.07 74 1011.4
20260508175521 48 71 4.3 8.7 0.00 0.07 0.07 73 1011.4
20260508175021 48 80 4.3 8.7 0.00 0.07 0.07 72 1011.4
20260508174538 48 84 1.7 8.7 0.00 0.07 0.07 73 1011.4
20260508174018 48 9 2.6 8.7 0.00 0.07 0.07 72 1011.5
20260508173518 49 60 1.7 6.1 0.00 0.07 0.07 73 1011.5
20260508173047 48 11 2.6 7.8 0.00 0.07 0.07 72 1011.5
20260508172521 48 38 2.6 7.8 0.00 0.07 0.07 72 1011.5
20260508172022 49 329 2.6 7.8 0.00 0.07 0.07 71 1011.6
20260508171542 50 16 3.5 7.8 0.00 0.07 0.07 69 1011.7
20260508171017 50 348 3.5 7.0 0.00 0.07 0.07 69 1011.7
20260508170522 50 327 1.7 5.2 0.00 0.07 0.07 70 1011.8
20260508170041 49 289 0.9 4.3 0.00 0.07 0.07 67 1011.9
20260508165521 49 197 2.6 5.2 0.00 0.07 0.07 68 1011.9
20260508165026 48 0 0.9 7.8 0.00 0.07 0.07 68 1011.8
20260508164543 48 347 1.7 7.8 0.00 0.07 0.07 68 1011.9
20260508164020 48 10 3.5 7.8 0.00 0.07 0.07 67 1011.9
20260508163521 49 339 1.7 7.0 0.00 0.07 0.07 71 1012.0
20260508163040 48 289 2.6 9.6 0.00 0.07 0.07 71 1012.1
20260508162520 48 350 4.3 9.6 0.00 0.07 0.07 70 1012.1
20260508162024 48 322 4.3 7.8 0.00 0.07 0.07 71 1012.1
20260508161537 48 40 1.7 7.8 0.00 0.07 0.07 75 1012.0
20260508161020 48 334 1.7 7.0 0.00 0.07 0.07 78 1012.1
20260508160520 47 35 2.6 8.7 0.00 0.07 0.07 78 1012.0
20260508160039 46 341 4.3 8.7 0.00 0.07 0.07 77 1012.2
20260508155522 47 5 3.5 9.6 0.00 0.07 0.07 77 1012.1
20260508155020 47 15 3.5 9.6 0.00 0.07 0.07 77 1012.1
20260508154551 47 19 3.5 7.8 0.00 0.07 0.07 74 1012.1
20260508154021 47 346 3.5 7.0 0.00 0.07 0.07 74 1012.0
20260508153521 47 352 2.6 5.2 0.00 0.07 0.07 75 1012.0
20260508153041 47 296 2.6 5.2 0.00 0.07 0.07 76 1011.9
20260508152521 47 0 0.9 6.1 0.00 0.07 0.07 78 1011.8
20260508152024 47 311 3.5 6.1 0.00 0.07 0.07 77 1011.9
20260508151542 47 229 2.6 6.1 0.00 0.07 0.07 79 1011.8
20260508151020 46 0 1.7 7.0 0.00 0.07 0.07 80 1011.8
20260508150526 45 264 2.6 7.8 0.00 0.07 0.07 80 1011.7
20260508150041 45 229 2.6 7.8 0.00 0.07 0.07 81 1011.7
20260508145523 44 261 2.6 7.0 0.00 0.07 0.07 82 1011.9
20260508145024 44 257 3.5 8.7 0.00 0.07 0.07 81 1011.7
20260508144540 44 209 4.3 8.7 0.00 0.07 0.07 83 1011.8
20260508144023 44 229 4.3 7.8 0.00 0.07 0.07 84 1011.8
20260508143523 44 220 4.3 8.7 0.01 0.07 0.07 85 1011.8
20260508143042 44 232 4.3 8.7 0.01 0.07 0.07 86 1011.8
20260508142523 43 250 3.5 7.0 0.02 0.07 0.07 85 1011.8
20260508142023 43 205 2.6 4.3 0.02 0.07 0.07 86 1011.9
20260508141552 42 196 2.6 4.3 0.02 0.07 0.07 85 1011.9
20260508141022 42 0 0.0 2.6 0.02 0.07 0.07 85 1011.8
20260508140523 42 250 0.9 2.6 0.02 0.07 0.07 84 1011.8
20260508140052 41 250 1.7 2.6 0.02 0.07 0.07 84 1011.9
20260508135524 41 298 0.0 1.7 0.02 0.07 0.07 85 1011.9
20260508135022 41 299 0.0 4.3 0.02 0.07 0.07 85 1011.9
20260508134541 41 0 0.0 4.3 0.02 0.07 0.07 85 1011.8
20260508134023 41 311 1.7 7.0 0.02 0.07 0.07 84 1011.9
20260508133523 41 297 3.5 10.4 0.01 0.06 0.06 85 1011.8
20260508133041 42 234 6.1 10.4 0.01 0.06 0.06 87 1011.8
20260508132523 43 216 2.6 5.2 0.00 0.05 0.05 89 1011.6